Terminal Aerodrome Forecast
Issued by NWS King Salmon, AK

Current Version | Previous Version | Text Only | Print | Product List | Glossary On
Versions: 1 2 3 4 5 6 7 8 9 10 11 12 13 14 15 16 17 18 19 20 21 22 23 24 25 26 27 28 29 30 31 32 33 34 35 36 37 38 39 40 41 42 43 44
000
FTAK31 PANC 301130
TAFAKN
TAF
PAKN 301130Z 3012/3112 18007KT 6SM BR SCT003 BKN060
      TEMPO 3013/3017 2SM BR BKN003
     FM301800 16015KT P6SM -SHRA FEW005 BKN035
     FM302200 16015G22KT P6SM -SHRA BKN035
     FM310300 12015KT P6SM SCT035 BKN070=

USA.gov is the U.S. government's official web portal to all federal, state and local government web resources and services.